| time (UTC) | temp F | wind direction | speed MPH | gust MPH | rain 1hr in | rain 24hr in | rain mn in | humidity % | barometer mb |
| 20260902103925 | 62 | 75 | 1.0 | 2.0 | 0.00 | 0.00 | 0.00 | 80 | 1016.4 |
| 20260902103426 | 62 | 88 | 1.0 | 2.0 | 0.00 | 0.00 | 0.00 | 80 | 1016.4 |
| 20260902102932 | 62 | 112 | 1.0 | 3.0 | 0.00 | 0.00 | 0.00 | 80 | 1016.4 |
| 20260902102447 | 62 | 156 | 1.0 | 3.0 | 0.00 | 0.00 | 0.00 | 80 | 1016.4 |
| 20260902101928 | 62 | 138 | 2.0 | 3.0 | 0.00 | 0.00 | 0.00 | 80 | 1016.3 |
| 20260902101435 | 62 | 127 | 2.0 | 3.0 | 0.00 | 0.00 | 0.00 | 80 | 1016.3 |
| 20260902100917 | 62 | 123 | 2.0 | 3.0 | 0.00 | 0.00 | 0.00 | 80 | 1016.3 |
| 20260902100423 | 62 | 112 | 2.0 | 3.0 | 0.00 | 0.00 | 0.00 | 80 | 1016.3 |
| 20260902095923 | 62 | 99 | 1.0 | 5.0 | 0.00 | 0.00 | 0.00 | 80 | 1016.3 |
| 20260902095429 | 62 | 104 | 3.0 | 5.0 | 0.00 | 0.00 | 0.00 | 80 | 1016.3 |
| 20260902094947 | 62 | 147 | 1.0 | 4.0 | 0.00 | 0.00 | 0.00 | 80 | 1016.3 |
| 20260902094434 | 62 | 222 | 1.0 | 5.0 | 0.00 | 0.00 | 0.00 | 80 | 1016.3 |
| 20260902093918 | 62 | 212 | 2.0 | 8.0 | 0.00 | 0.00 | 0.00 | 80 | 1016.3 |
| 20260902093423 | 62 | 235 | 3.0 | 9.0 | 0.00 | 0.00 | 0.00 | 80 | 1016.3 |
| 20260902092922 | 62 | 196 | 3.0 | 9.0 | 0.00 | 0.00 | 0.00 | 80 | 1016.3 |
| 20260902092426 | 62 | 215 | 4.0 | 8.0 | 0.00 | 0.00 | 0.00 | 80 | 1016.2 |
| 20260902091929 | 62 | 211 | 3.0 | 6.0 | 0.00 | 0.00 | 0.00 | 81 | 1016.2 |
| 20260902091432 | 62 | 230 | 4.0 | 6.0 | 0.00 | 0.00 | 0.00 | 81 | 1016.3 |
| 20260902090936 | 62 | 239 | 2.0 | 6.0 | 0.00 | 0.00 | 0.00 | 81 | 1016.3 |
| 20260902090419 | 62 | 240 | 2.0 | 6.0 | 0.00 | 0.00 | 0.00 | 81 | 1016.4 |
| 20260902085923 | 62 | 236 | 3.0 | 6.0 | 0.00 | 0.00 | 0.00 | 81 | 1016.5 |
| 20260902085446 | 62 | 259 | 2.0 | 5.0 | 0.00 | 0.00 | 0.00 | 81 | 1016.5 |
| 20260902084930 | 62 | 244 | 2.0 | 6.0 | 0.00 | 0.00 | 0.00 | 81 | 1016.5 |
| 20260902084433 | 62 | 212 | 2.0 | 6.0 | 0.00 | 0.00 | 0.00 | 81 | 1016.5 |
| 20260902083935 | 62 | 268 | 2.0 | 7.0 | 0.00 | 0.00 | 0.00 | 81 | 1016.5 |
| 20260902083420 | 61 | 196 | 3.0 | 6.0 | 0.00 | 0.00 | 0.00 | 81 | 1016.6 |
| 20260902082920 | 61 | 185 | 2.0 | 4.0 | 0.00 | 0.00 | 0.00 | 81 | 1016.7 |
| 20260902082424 | 61 | 239 | 1.0 | 3.0 | 0.00 | 0.00 | 0.00 | 81 | 1016.7 |
| 20260902081924 | 61 | 222 | 1.0 | 3.0 | 0.00 | 0.00 | 0.00 | 81 | 1016.7 |
| 20260902081431 | 61 | 251 | 1.0 | 4.0 | 0.00 | 0.00 | 0.00 | 81 | 1016.7 |
| 20260902080934 | 61 | 212 | 2.0 | 4.0 | 0.00 | 0.00 | 0.00 | 81 | 1016.6 |
| 20260902080439 | 62 | 232 | 2.0 | 4.0 | 0.00 | 0.00 | 0.00 | 81 | 1016.7 |
| 20260902075941 | 62 | 177 | 1.0 | 4.0 | 0.00 | 0.00 | 0.00 | 81 | 1016.7 |
| 20260902075455 | 62 | 189 | 1.0 | 5.0 | 0.00 | 0.00 | 0.00 | 81 | 1016.7 |
| 20260902074935 | 62 | 209 | 2.0 | 7.0 | 0.00 | 0.00 | 0.00 | 81 | 1016.6 |
| 20260902074421 | 62 | 212 | 4.0 | 7.0 | 0.00 | 0.00 | 0.00 | 81 | 1016.6 |
| 20260902073924 | 62 | 256 | 1.0 | 6.0 | 0.00 | 0.00 | 0.00 | 81 | 1016.6 |
| 20260902073427 | 62 | 184 | 2.0 | 7.0 | 0.00 | 0.00 | 0.00 | 81 | 1016.6 |
| 20260902073017 | 62 | 222 | 3.0 | 7.0 | 0.00 | 0.00 | 0.00 | 81 | 1016.6 |
| 20260902072434 | 62 | 222 | 3.0 | 8.0 | 0.00 | 0.00 | 0.00 | 82 | 1016.6 |
| 20260902071936 | 62 | 231 | 5.0 | 8.0 | 0.00 | 0.00 | 0.00 | 82 | 1016.5 |
| 20260902071420 | 62 | 251 | 4.0 | 8.0 | 0.00 | 0.00 | 0.00 | 82 | 1016.6 |
| 20260902070946 | 62 | 251 | 3.0 | 10.0 | 0.00 | 0.00 | 0.00 | 82 | 1016.7 |
| 20260902070456 | 62 | 240 | 4.0 | 7.0 | 0.00 | 0.00 | 0.00 | 83 | 1016.6 |
| 20260902065932 | 62 | 251 | 4.0 | 9.0 | 0.00 | 0.00 | 0.00 | 83 | 1016.5 |
| 20260902065435 | 61 | 206 | 4.0 | 9.0 | 0.00 | 0.00 | 0.00 | 83 | 1016.5 |
| 20260902064934 | 61 | 232 | 2.0 | 5.0 | 0.00 | 0.00 | 0.00 | 83 | 1016.5 |
| 20260902064437 | 61 | 226 | 2.0 | 5.0 | 0.00 | 0.00 | 0.00 | 83 | 1016.6 |
| 20260902063921 | 61 | 256 | 2.0 | 4.0 | 0.00 | 0.00 | 0.00 | 83 | 1016.5 |
| 20260902063423 | 61 | 212 | 2.0 | 4.0 | 0.00 | 0.00 | 0.00 | 83 | 1016.5 |
| 20260902062947 | 61 | 230 | 1.0 | 3.0 | 0.00 | 0.00 | 0.00 | 83 | 1016.7 |
| 20260902062433 | 61 | 177 | 1.0 | 3.0 | 0.00 | 0.00 | 0.00 | 83 | 1016.6 |
| 20260902061935 | 61 | 88 | 1.0 | 2.0 | 0.00 | 0.00 | 0.00 | 83 | 1016.6 |
| 20260902061437 | 61 | 205 | 1.0 | 3.0 | 0.00 | 0.00 | 0.00 | 83 | 1016.5 |
| 20260902060951 | 61 | 222 | 1.0 | 3.0 | 0.00 | 0.00 | 0.00 | 83 | 1016.6 |
| 20260902060459 | 61 | 215 | 1.0 | 2.0 | 0.00 | 0.00 | 0.00 | 83 | 1016.6 |
| 20260902055924 | 61 | 268 | 1.0 | 2.0 | 0.00 | 0.00 | 0.00 | 83 | 1016.7 |
| 20260902055425 | 61 | 134 | 1.0 | 2.0 | 0.00 | 0.00 | 0.00 | 83 | 1016.6 |
| 20260902054924 | 61 | 123 | 1.0 | 2.0 | 0.00 | 0.00 | 0.00 | 83 | 1016.6 |
| 20260902054429 | 61 | 134 | 1.0 | 2.0 | 0.00 | 0.00 | 0.00 | 83 | 1016.7 |
| 20260902053935 | 62 | 151 | 1.0 | 2.0 | 0.00 | 0.00 | 0.00 | 82 | 1016.6 |
| 20260902053419 | 62 | 116 | 1.0 | 2.0 | 0.00 | 0.00 | 0.00 | 82 | 1016.6 |
| 20260902052920 | 62 | 144 | 1.0 | 2.0 | 0.00 | 0.00 | 0.00 | 82 | 1016.7 |
| 20260902052421 | 62 | 123 | 1.0 | 2.0 | 0.00 | 0.00 | 0.00 | 82 | 1016.6 |
| 20260902051926 | 62 | 151 | 1.0 | 4.0 | 0.00 | 0.00 | 0.00 | 82 | 1016.6 |
| 20260902051427 | 62 | 151 | 2.0 | 4.0 | 0.00 | 0.00 | 0.00 | 82 | 1016.6 |
| 20260902050931 | 62 | 144 | 2.0 | 3.0 | 0.00 | 0.00 | 0.00 | 82 | 1016.7 |
| 20260902050435 | 62 | 148 | 2.0 | 3.0 | 0.00 | 0.00 | 0.00 | 82 | 1016.7 |
| 20260902045939 | 62 | 212 | 1.0 | 5.0 | 0.00 | 0.00 | 0.00 | 82 | 1016.8 |
| 20260902045424 | 62 | 192 | 2.0 | 6.0 | 0.00 | 0.00 | 0.00 | 82 | 1016.8 |
| 20260902044926 | 62 | 217 | 3.0 | 6.0 | 0.00 | 0.00 | 0.00 | 82 | 1016.8 |
| 20260902044432 | 62 | 205 | 2.0 | 5.0 | 0.00 | 0.00 | 0.00 | 82 | 1016.7 |
| 20260902043936 | 62 | 193 | 2.0 | 5.0 | 0.00 | 0.00 | 0.00 | 82 | 1016.8 |
| 20260902043420 | 62 | 213 | 2.0 | 5.0 | 0.00 | 0.00 | 0.00 | 82 | 1016.7 |
| 20260902042922 | 63 | 213 | 2.0 | 6.0 | 0.00 | 0.00 | 0.00 | 82 | 1016.8 |
| 20260902042428 | 63 | 177 | 3.0 | 5.0 | 0.00 | 0.00 | 0.00 | 82 | 1016.7 |
| 20260902041935 | 63 | 240 | 3.0 | 6.0 | 0.00 | 0.00 | 0.00 | 82 | 1016.8 |
| 20260902041436 | 63 | 198 | 2.0 | 6.0 | 0.00 | 0.00 | 0.00 | 82 | 1016.7 |
| 20260902040924 | 63 | 256 | 3.0 | 6.0 | 0.00 | 0.00 | 0.00 | 82 | 1016.7 |
| 20260902040458 | 63 | 219 | 3.0 | 9.0 | 0.00 | 0.00 | 0.00 | 82 | 1016.7 |
| 20260902035920 | 63 | 268 | 5.0 | 9.0 | 0.00 | 0.00 | 0.00 | 82 | 1016.6 |
| 20260902035425 | 63 | 209 | 3.0 | 8.0 | 0.00 | 0.00 | 0.00 | 82 | 1016.6 |
| 20260902034932 | 63 | 261 | 4.0 | 8.0 | 0.00 | 0.00 | 0.00 | 82 | 1016.6 |
| 20260902034418 | 63 | 223 | 4.0 | 8.0 | 0.00 | 0.00 | 0.00 | 82 | 1016.5 |
| 20260902033919 | 63 | 222 | 3.0 | 9.0 | 0.00 | 0.00 | 0.00 | 82 | 1016.5 |
| 20260902033424 | 63 | 220 | 4.0 | 10.0 | 0.00 | 0.00 | 0.00 | 82 | 1016.4 |
| 20260902032926 | 63 | 212 | 5.0 | 10.0 | 0.00 | 0.00 | 0.00 | 82 | 1016.4 |
| 20260902032434 | 63 | 313 | 4.0 | 7.0 | 0.00 | 0.00 | 0.00 | 82 | 1016.3 |
| 20260902031918 | 63 | 282 | 2.0 | 11.0 | 0.00 | 0.00 | 0.00 | 82 | 1016.4 |
| 20260902031423 | 63 | 323 | 3.0 | 11.0 | 0.00 | 0.00 | 0.00 | 82 | 1016.5 |
| 20260902030929 | 63 | 259 | 6.0 | 10.0 | 0.00 | 0.00 | 0.00 | 82 | 1016.4 |
| 20260902030429 | 63 | 215 | 4.0 | 7.0 | 0.00 | 0.00 | 0.00 | 82 | 1016.4 |
| 20260902025934 | 63 | 225 | 4.0 | 12.0 | 0.00 | 0.00 | 0.00 | 82 | 1016.4 |
| 20260902025447 | 63 | 239 | 7.0 | 12.0 | 0.00 | 0.00 | 0.00 | 81 | 1016.4 |
| 20260902024931 | 63 | 242 | 2.0 | 9.0 | 0.00 | 0.00 | 0.00 | 81 | 1016.3 |
| 20260902024437 | 63 | 235 | 5.0 | 10.0 | 0.00 | 0.00 | 0.00 | 81 | 1016.4 |
| 20260902023923 | 64 | 275 | 3.0 | 11.0 | 0.00 | 0.00 | 0.00 | 81 | 1016.3 |
| 20260902023444 | 63 | 268 | 6.0 | 11.0 | 0.00 | 0.00 | 0.00 | 80 | 1016.3 |
| 20260902022924 | 64 | 242 | 5.0 | 10.0 | 0.00 | 0.00 | 0.00 | 80 | 1016.3 |
| 20260902022429 | 64 | 268 | 3.0 | 10.0 | 0.00 | 0.00 | 0.00 | 80 | 1016.4 |
| 20260902021936 | 64 | 261 | 4.0 | 8.0 | 0.00 | 0.00 | 0.00 | 80 | 1016.4 |
| 20260902021452 | 64 | 200 | 5.0 | 11.0 | 0.00 | 0.00 | 0.00 | 80 | 1016.4 |
| 20260902020937 | 64 | 204 | 7.0 | 11.0 | 0.00 | 0.00 | 0.00 | 79 | 1016.2 |
| 20260902020421 | 64 | 235 | 5.0 | 10.0 | 0.00 | 0.00 | 0.00 | 79 | 1016.3 |
| 20260902015942 | 64 | 200 | 4.0 | 9.0 | 0.00 | 0.00 | 0.00 | 78 | 1016.3 |
| 20260902015457 | 64 | 251 | 5.0 | 9.0 | 0.00 | 0.00 | 0.00 | 78 | 1016.3 |
| 20260902014938 | 64 | 237 | 3.0 | 8.0 | 0.00 | 0.00 | 0.00 | 77 | 1016.3 |
| 20260902014452 | 64 | 252 | 4.0 | 10.0 | 0.00 | 0.00 | 0.00 | 76 | 1016.3 |
| 20260902013936 | 64 | 227 | 6.0 | 11.0 | 0.00 | 0.00 | 0.00 | 75 | 1016.3 |
| 20260902013440 | 64 | 222 | 5.0 | 12.0 | 0.00 | 0.00 | 0.00 | 75 | 1016.3 |
| 20260902012959 | 65 | 229 | 8.0 | 14.0 | 0.00 | 0.00 | 0.00 | 74 | 1016.3 |
| 20260902012422 | 65 | 221 | 6.0 | 15.0 | 0.00 | 0.00 | 0.00 | 74 | 1016.2 |
| 20260902011927 | 65 | 217 | 7.0 | 15.0 | 0.00 | 0.00 | 0.00 | 74 | 1016.1 |
| 20260902011433 | 65 | 211 | 8.0 | 14.0 | 0.00 | 0.00 | 0.00 | 73 | 1016.1 |
| 20260902010940 | 65 | 228 | 7.0 | 13.0 | 0.00 | 0.00 | 0.00 | 74 | 1016.1 |
| 20260902010435 | 65 | 221 | 9.0 | 13.0 | 0.00 | 0.00 | 0.00 | 74 | 1016.1 |
| 20260902005920 | 65 | 268 | 5.0 | 18.0 | 0.00 | 0.00 | 0.00 | 74 | 1016.1 |
| 20260902005420 | 65 | 212 | 9.0 | 18.0 | 0.00 | 0.00 | 0.00 | 73 | 1016.1 |
| 20260902004925 | 65 | 258 | 8.0 | 15.0 | 0.00 | 0.00 | 0.00 | 73 | 1016.2 |
| 20260902004428 | 66 | 236 | 6.0 | 13.0 | 0.00 | 0.00 | 0.00 | 73 | 1016.1 |
| 20260902003934 | 66 | 181 | 6.0 | 15.0 | 0.00 | 0.00 | 0.00 | 73 | 1016.0 |
| 20260902003435 | 66 | 205 | 6.0 | 15.0 | 0.00 | 0.00 | 0.00 | 73 | 1016.0 |
| 20260902002918 | 66 | 240 | 7.0 | 17.0 | 0.00 | 0.00 | 0.00 | 73 | 1016.0 |
| 20260902002442 | 66 | 198 | 7.0 | 17.0 | 0.00 | 0.00 | 0.00 | 73 | 1016.0 |
| 20260902001925 | 66 | 215 | 8.0 | 14.0 | 0.00 | 0.00 | 0.00 | 72 | 1016.0 |
| 20260902001455 | 66 | 221 | 9.0 | 14.0 | 0.00 | 0.00 | 0.00 | 71 | 1016.1 |
| 20260902000946 | 66 | 249 | 8.0 | 15.0 | 0.00 | 0.00 | 0.00 | 72 | 1016.1 |
| 20260902000429 | 66 | 241 | 9.0 | 16.0 | 0.00 | 0.00 | 0.00 | 72 | 1016.1 |
| 20260901235931 | 66 | 217 | 7.0 | 17.0 | 0.00 | 0.00 | 0.00 | 72 | 1016.1 |
| 20260901235438 | 66 | 225 | 9.0 | 18.0 | 0.00 | 0.00 | 0.00 | 72 | 1016.1 |
| 20260901234936 | 65 | 251 | 9.0 | 18.0 | 0.00 | 0.00 | 0.00 | 72 | 1016.2 |
| 20260901234419 | 66 | 202 | 6.0 | 16.0 | 0.00 | 0.00 | 0.00 | 73 | 1016.1 |
| 20260901233924 | 66 | 215 | 7.0 | 15.0 | 0.00 | 0.00 | 0.00 | 73 | 1016.2 |
| 20260901233429 | 66 | 225 | 9.0 | 15.0 | 0.00 | 0.00 | 0.00 | 73 | 1016.2 |
| 20260901232934 | 66 | 246 | 5.0 | 18.0 | 0.00 | 0.00 | 0.00 | 73 | 1016.2 |
| 20260901232420 | 67 | 226 | 8.0 | 14.0 | 0.00 | 0.00 | 0.00 | 73 | 1016.3 |
| 20260901231923 | 66 | 268 | 5.0 | 15.0 | 0.00 | 0.00 | 0.00 | 73 | 1016.3 |
| 20260901231423 | 66 | 219 | 8.0 | 15.0 | 0.00 | 0.00 | 0.00 | 73 | 1016.4 |
| 20260901230931 | 67 | 224 | 8.0 | 15.0 | 0.00 | 0.00 | 0.00 | 73 | 1016.4 |
| 20260901230434 | 66 | 223 | 8.0 | 17.0 | 0.00 | 0.00 | 0.00 | 73 | 1016.4 |
| 20260901225918 | 66 | 251 | 10.0 | 17.0 | 0.00 | 0.00 | 0.00 | 72 | 1016.5 |
| 20260901225444 | 66 | 209 | 10.0 | 18.0 | 0.00 | 0.00 | 0.00 | 72 | 1016.5 |
| 20260901224955 | 67 | 240 | 7.0 | 18.0 | 0.00 | 0.00 | 0.00 | 72 | 1016.6 |
| 20260901224419 | 67 | 334 | 6.0 | 13.0 | 0.00 | 0.00 | 0.00 | 71 | 1016.5 |
| 20260901223921 | 68 | 209 | 7.0 | 13.0 | 0.00 | 0.00 | 0.00 | 71 | 1016.6 |
| 20260901223424 | 68 | 227 | 6.0 | 14.0 | 0.00 | 0.00 | 0.00 | 72 | 1016.6 |
| 20260901222927 | 67 | 275 | 8.0 | 16.0 | 0.00 | 0.00 | 0.00 | 72 | 1016.6 |
| 20260901222433 | 67 | 237 | 6.0 | 16.0 | 0.00 | 0.00 | 0.00 | 72 | 1016.5 |
| 20260901221936 | 67 | 283 | 8.0 | 17.0 | 0.00 | 0.00 | 0.00 | 72 | 1016.6 |
| 20260901221420 | 67 | 220 | 10.0 | 17.0 | 0.00 | 0.00 | 0.00 | 72 | 1016.6 |
| 20260901220926 | 67 | 227 | 6.0 | 16.0 | 0.00 | 0.00 | 0.00 | 72 | 1016.6 |
| 20260901220454 | 67 | 214 | 11.0 | 16.0 | 0.00 | 0.00 | 0.00 | 72 | 1016.6 |
| 20260901215937 | 67 | 268 | 7.0 | 14.0 | 0.00 | 0.00 | 0.00 | 72 | 1016.6 |
| 20260901215441 | 67 | 294 | 9.0 | 14.0 | 0.00 | 0.00 | 0.00 | 72 | 1016.5 |
| 20260901214952 | 68 | 295 | 9.0 | 16.0 | 0.00 | 0.00 | 0.00 | 71 | 1016.5 |
| 20260901214437 | 68 | 242 | 7.0 | 16.0 | 0.00 | 0.00 | 0.00 | 70 | 1016.5 |
| 20260901213940 | 68 | 271 | 6.0 | 14.0 | 0.00 | 0.00 | 0.00 | 70 | 1016.5 |
| 20260901213438 | 68 | 231 | 8.0 | 14.0 | 0.00 | 0.00 | 0.00 | 70 | 1016.5 |
| 20260901212951 | 68 | 263 | 7.0 | 14.0 | 0.00 | 0.00 | 0.00 | 70 | 1016.6 |
| 20260901212433 | 68 | 296 | 7.0 | 15.0 | 0.00 | 0.00 | 0.00 | 71 | 1016.6 |
| 20260901211918 | 67 | 237 | 6.0 | 15.0 | 0.00 | 0.00 | 0.00 | 72 | 1016.5 |
| 20260901211442 | 67 | 226 | 5.0 | 12.0 | 0.00 | 0.00 | 0.00 | 71 | 1016.6 |
| 20260901210925 | 67 | 235 | 5.0 | 12.0 | 0.00 | 0.00 | 0.00 | 71 | 1016.6 |
| 20260901210425 | 67 | 271 | 6.0 | 14.0 | 0.00 | 0.00 | 0.00 | 70 | 1016.5 |
| 20260901205930 | 67 | 322 | 7.0 | 14.0 | 0.00 | 0.00 | 0.00 | 71 | 1016.4 |
| 20260901205435 | 67 | 271 | 7.0 | 14.0 | 0.00 | 0.00 | 0.00 | 71 | 1016.4 |
| 20260901204948 | 67 | 275 | 7.0 | 13.0 | 0.00 | 0.00 | 0.00 | 70 | 1016.5 |
| 20260901204434 | 67 | 281 | 6.0 | 14.0 | 0.00 | 0.00 | 0.00 | 70 | 1016.5 |
| 20260901203918 | 67 | 252 | 8.0 | 14.0 | 0.00 | 0.00 | 0.00 | 70 | 1016.6 |
| 20260901203423 | 66 | 247 | 6.0 | 12.0 | 0.00 | 0.00 | 0.00 | 71 | 1016.5 |
| 20260901202921 | 66 | 261 | 7.0 | 12.0 | 0.00 | 0.00 | 0.00 | 71 | 1016.5 |
| 20260901202426 | 67 | 239 | 6.0 | 13.0 | 0.00 | 0.00 | 0.00 | 70 | 1016.6 |
| 20260901201931 | 67 | 220 | 6.0 | 14.0 | 0.00 | 0.00 | 0.00 | 71 | 1016.6 |
| 20260901201436 | 67 | 273 | 7.0 | 14.0 | 0.00 | 0.00 | 0.00 | 73 | 1016.6 |
| 20260901200921 | 66 | 273 | 7.0 | 13.0 | 0.00 | 0.00 | 0.00 | 72 | 1016.6 |
| 20260901200428 | 67 | 230 | 8.0 | 14.0 | 0.00 | 0.00 | 0.00 | 72 | 1016.6 |
| 20260901195929 | 66 | 234 | 6.0 | 15.0 | 0.00 | 0.00 | 0.00 | 71 | 1016.6 |
| 20260901195432 | 66 | 196 | 7.0 | 15.0 | 0.00 | 0.00 | 0.00 | 70 | 1016.6 |
| 20260901194935 | 66 | 207 | 7.0 | 16.0 | 0.00 | 0.00 | 0.00 | 70 | 1016.6 |
| 20260901194420 | 66 | 212 | 8.0 | 15.0 | 0.00 | 0.00 | 0.00 | 71 | 1016.7 |
| 20260901193952 | 66 | 209 | 7.0 | 15.0 | 0.00 | 0.00 | 0.00 | 72 | 1016.7 |
| 20260901193438 | 66 | 233 | 9.0 | 15.0 | 0.00 | 0.00 | 0.00 | 72 | 1016.6 |
| 20260901192919 | 66 | 238 | 7.0 | 14.0 | 0.00 | 0.00 | 0.00 | 73 | 1016.8 |
| 20260901192422 | 66 | 282 | 6.0 | 14.0 | 0.00 | 0.00 | 0.00 | 72 | 1016.8 |
| 20260901191921 | 66 | 222 | 5.0 | 14.0 | 0.00 | 0.00 | 0.00 | 73 | 1016.9 |
| 20260901191427 | 66 | 238 | 7.0 | 14.0 | 0.00 | 0.00 | 0.00 | 73 | 1016.8 |
| 20260901190932 | 66 | 211 | 6.0 | 14.0 | 0.00 | 0.00 | 0.00 | 74 | 1016.9 |
| 20260901190427 | 65 | 222 | 10.0 | 14.0 | 0.00 | 0.00 | 0.00 | 73 | 1016.7 |
| 20260901185922 | 65 | 259 | 6.0 | 14.0 | 0.00 | 0.00 | 0.00 | 73 | 1016.8 |
| 20260901185426 | 66 | 230 | 7.0 | 14.0 | 0.00 | 0.00 | 0.00 | 74 | 1016.9 |
| 20260901184932 | 65 | 222 | 8.0 | 16.0 | 0.00 | 0.00 | 0.00 | 74 | 1016.8 |
| 20260901184433 | 66 | 189 | 7.0 | 11.0 | 0.00 | 0.00 | 0.00 | 74 | 1016.8 |
| 20260901183928 | 66 | 264 | 5.0 | 12.0 | 0.00 | 0.00 | 0.00 | 74 | 1016.8 |
| 20260901183430 | 65 | 221 | 7.0 | 12.0 | 0.00 | 0.00 | 0.00 | 74 | 1016.8 |
| 20260901182934 | 65 | 299 | 4.0 | 10.0 | 0.00 | 0.00 | 0.00 | 74 | 1016.8 |
| 20260901182419 | 65 | 257 | 5.0 | 10.0 | 0.00 | 0.00 | 0.00 | 74 | 1016.8 |
| 20260901181924 | 65 | 249 | 4.0 | 10.0 | 0.00 | 0.00 | 0.00 | 75 | 1016.8 |
| 20260901181428 | 65 | 222 | 7.0 | 10.0 | 0.00 | 0.00 | 0.00 | 74 | 1016.7 |
| 20260901180929 | 65 | 207 | 5.0 | 10.0 | 0.00 | 0.00 | 0.00 | 73 | 1016.8 |
| 20260901180435 | 65 | 213 | 5.0 | 10.0 | 0.00 | 0.00 | 0.00 | 74 | 1016.7 |
| 20260901175947 | 65 | 227 | 6.0 | 10.0 | 0.00 | 0.00 | 0.00 | 75 | 1016.7 |
| 20260901175430 | 65 | 214 | 2.0 | 10.0 | 0.00 | 0.00 | 0.00 | 77 | 1016.8 |
| 20260901174931 | 64 | 183 | 4.0 | 10.0 | 0.00 | 0.00 | 0.00 | 77 | 1016.7 |
| 20260901174435 | 64 | 231 | 5.0 | 12.0 | 0.00 | 0.00 | 0.00 | 76 | 1016.7 |
| 20260901173937 | 65 | 203 | 5.0 | 9.0 | 0.00 | 0.00 | 0.00 | 77 | 1016.6 |
| 20260901173447 | 64 | 183 | 5.0 | 11.0 | 0.00 | 0.00 | 0.00 | 77 | 1016.5 |
| 20260901172929 | 64 | 212 | 6.0 | 11.0 | 0.00 | 0.00 | 0.00 | 77 | 1016.5 |
| 20260901172433 | 64 | 196 | 4.0 | 11.0 | 0.00 | 0.00 | 0.00 | 77 | 1016.5 |
| 20260901171938 | 64 | 215 | 5.0 | 10.0 | 0.00 | 0.00 | 0.00 | 78 | 1016.5 |
| 20260901171438 | 64 | 244 | 3.0 | 12.0 | 0.00 | 0.00 | 0.00 | 78 | 1016.4 |
| 20260901170918 | 64 | 222 | 5.0 | 8.0 | 0.00 | 0.00 | 0.00 | 78 | 1016.4 |
| 20260901170433 | 64 | 194 | 4.0 | 11.0 | 0.00 | 0.00 | 0.00 | 78 | 1016.4 |
| 20260901165935 | 64 | 196 | 6.0 | 11.0 | 0.00 | 0.00 | 0.00 | 78 | 1016.4 |
| 20260901165437 | 64 | 254 | 4.0 | 11.0 | 0.00 | 0.00 | 0.00 | 78 | 1016.3 |
| 20260901164919 | 64 | 284 | 6.0 | 9.0 | 0.00 | 0.00 | 0.00 | 79 | 1016.2 |
| 20260901164423 | 64 | 268 | 3.0 | 11.0 | 0.00 | 0.00 | 0.00 | 79 | 1016.2 |
| 20260901163925 | 63 | 286 | 6.0 | 11.0 | 0.00 | 0.00 | 0.00 | 79 | 1016.2 |
| 20260901163427 | 63 | 360 | 5.0 | 9.0 | 0.00 | 0.00 | 0.00 | 80 | 1016.2 |
| 20260901162926 | 63 | 283 | 4.0 | 8.0 | 0.00 | 0.00 | 0.00 | 80 | 1016.1 |
| 20260901162430 | 63 | 214 | 6.0 | 8.0 | 0.00 | 0.00 | 0.00 | 81 | 1016.1 |
| 20260901161935 | 63 | 225 | 4.0 | 10.0 | 0.00 | 0.00 | 0.00 | 81 | 1016.1 |
| 20260901161437 | 63 | 256 | 7.0 | 10.0 | 0.00 | 0.00 | 0.00 | 81 | 1016.1 |
| 20260901160951 | 62 | 273 | 5.0 | 11.0 | 0.00 | 0.00 | 0.00 | 82 | 1016.1 |
| 20260901160434 | 62 | 280 | 6.0 | 12.0 | 0.00 | 0.00 | 0.00 | 82 | 1016.1 |
| 20260901155917 | 62 | 188 | 7.0 | 12.0 | 0.00 | 0.00 | 0.00 | 82 | 1016.2 |
| 20260901155418 | 62 | 244 | 4.0 | 8.0 | 0.00 | 0.00 | 0.00 | 82 | 1016.1 |
| 20260901154921 | 62 | 268 | 4.0 | 8.0 | 0.00 | 0.00 | 0.00 | 82 | 1016.1 |
| 20260901154456 | 62 | 271 | 3.0 | 10.0 | 0.00 | 0.00 | 0.00 | 83 | 1016.0 |
| 20260901153918 | 62 | 235 | 4.0 | 10.0 | 0.00 | 0.00 | 0.00 | 83 | 1015.9 |
| 20260901153442 | 62 | 313 | 5.0 | 11.0 | 0.00 | 0.00 | 0.00 | 83 | 1015.8 |
| 20260901152955 | 62 | 217 | 6.0 | 18.0 | 0.00 | 0.00 | 0.00 | 83 | 1015.8 |
| 20260901152435 | 62 | 220 | 6.0 | 12.0 | 0.00 | 0.00 | 0.00 | 83 | 1015.6 |
| 20260901151938 | 62 | 212 | 3.0 | 10.0 | 0.00 | 0.00 | 0.00 | 84 | 1015.6 |
| 20260901151453 | 62 | 263 | 5.0 | 10.0 | 0.00 | 0.00 | 0.00 | 84 | 1015.6 |
| 20260901150919 | 62 | 196 | 4.0 | 12.0 | 0.00 | 0.00 | 0.00 | 84 | 1015.4 |
| 20260901150421 | 62 | 218 | 3.0 | 12.0 | 0.00 | 0.00 | 0.00 | 84 | 1015.5 |
| 20260901145924 | 61 | 188 | 5.0 | 10.0 | 0.00 | 0.00 | 0.00 | 84 | 1015.4 |
| 20260901145429 | 61 | 208 | 5.0 | 10.0 | 0.00 | 0.00 | 0.00 | 84 | 1015.3 |
| 20260901144926 | 61 | 217 | 4.0 | 10.0 | 0.00 | 0.00 | 0.00 | 84 | 1015.2 |
| 20260901144431 | 61 | 292 | 4.0 | 10.0 | 0.00 | 0.00 | 0.00 | 84 | 1015.1 |
| 20260901143934 | 61 | 230 | 3.0 | 11.0 | 0.00 | 0.00 | 0.00 | 84 | 1015.2 |
| 20260901143445 | 61 | 247 | 6.0 | 11.0 | 0.00 | 0.00 | 0.00 | 84 | 1015.0 |
| 20260901142946 | 61 | 268 | 4.0 | 13.0 | 0.00 | 0.00 | 0.00 | 84 | 1015.0 |
| 20260901142424 | 61 | 237 | 5.0 | 9.0 | 0.00 | 0.00 | 0.00 | 84 | 1014.9 |
| 20260901141918 | 61 | 203 | 3.0 | 9.0 | 0.00 | 0.00 | 0.00 | 85 | 1014.9 |
| 20260901141422 | 61 | 256 | 4.0 | 9.0 | 0.00 | 0.00 | 0.00 | 85 | 1014.7 |
| 20260901140925 | 61 | 211 | 4.0 | 9.0 | 0.00 | 0.00 | 0.00 | 84 | 1014.6 |
| 20260901140428 | 61 | 213 | 5.0 | 11.0 | 0.00 | 0.00 | 0.00 | 85 | 1014.6 |
| 20260901135932 | 61 | 198 | 6.0 | 11.0 | 0.00 | 0.00 | 0.00 | 85 | 1014.6 |
| 20260901135437 | 61 | 258 | 5.0 | 11.0 | 0.00 | 0.00 | 0.00 | 85 | 1014.5 |
| 20260901134922 | 61 | 261 | 4.0 | 9.0 | 0.00 | 0.00 | 0.00 | 85 | 1014.4 |
| 20260901134422 | 61 | 251 | 5.0 | 8.0 | 0.00 | 0.00 | 0.00 | 85 | 1014.4 |
| 20260901133957 | 61 | 222 | 4.0 | 10.0 | 0.00 | 0.00 | 0.00 | 85 | 1014.4 |
| 20260901133439 | 61 | 222 | 3.0 | 10.0 | 0.00 | 0.00 | 0.00 | 85 | 1014.3 |
| 20260901132920 | 61 | 244 | 4.0 | 8.0 | 0.00 | 0.00 | 0.00 | 84 | 1014.3 |
| 20260901132445 | 61 | 261 | 3.0 | 7.0 | 0.00 | 0.00 | 0.00 | 84 | 1014.2 |
| 20260901131921 | 61 | 284 | 3.0 | 11.0 | 0.00 | 0.00 | 0.00 | 84 | 1014.1 |
| 20260901131420 | 61 | 242 | 4.0 | 11.0 | 0.00 | 0.00 | 0.00 | 84 | 1014.2 |
| 20260901130924 | 61 | 277 | 4.0 | 11.0 | 0.00 | 0.00 | 0.00 | 84 | 1014.1 |
| 20260901130431 | 61 | 213 | 6.0 | 9.0 | 0.00 | 0.00 | 0.00 | 84 | 1014.0 |
| 20260901125933 | 61 | 45 | 3.0 | 8.0 | 0.00 | 0.00 | 0.00 | 84 | 1014.1 |
| 20260901125420 | 61 | 239 | 4.0 | 8.0 | 0.00 | 0.00 | 0.00 | 84 | 1014.0 |
| 20260901124922 | 61 | 208 | 2.0 | 10.0 | 0.00 | 0.00 | 0.00 | 83 | 1013.9 |
| 20260901124428 | 61 | 230 | 5.0 | 10.0 | 0.00 | 0.00 | 0.00 | 83 | 1014.0 |
| 20260901123929 | 61 | 207 | 3.0 | 8.0 | 0.00 | 0.00 | 0.00 | 83 | 1014.0 |
| 20260901123433 | 61 | 215 | 4.0 | 8.0 | 0.00 | 0.00 | 0.00 | 83 | 1014.0 |
| 20260901122935 | 61 | 215 | 4.0 | 11.0 | 0.00 | 0.00 | 0.00 | 83 | 1014.0 |
| 20260901122420 | 61 | 226 | 4.0 | 11.0 | 0.00 | 0.00 | 0.00 | 83 | 1014.0 |
| 20260901121926 | 61 | 219 | 5.0 | 11.0 | 0.00 | 0.00 | 0.00 | 83 | 1013.9 |
| 20260901121433 | 61 | 228 | 4.0 | 10.0 | 0.00 | 0.00 | 0.00 | 83 | 1013.8 |
| 20260901120919 | 61 | 206 | 5.0 | 9.0 | 0.00 | 0.00 | 0.00 | 82 | 1013.7 |
| 20260901120424 | 61 | 261 | 3.0 | 10.0 | 0.00 | 0.00 | 0.00 | 82 | 1013.7 |
| 20260901115946 | 61 | 171 | 4.0 | 8.0 | 0.00 | 0.00 | 0.00 | 82 | 1013.8 |
| 20260901115431 | 61 | 203 | 3.0 | 8.0 | 0.00 | 0.00 | 0.00 | 82 | 1013.9 |
| 20260901114934 | 61 | 218 | 4.0 | 9.0 | 0.00 | 0.00 | 0.00 | 82 | 1013.9 |
| 20260901114420 | 61 | 268 | 4.0 | 9.0 | 0.00 | 0.00 | 0.00 | 82 | 1013.9 |
| 20260901113924 | 61 | 292 | 5.0 | 7.0 | 0.00 | 0.00 | 0.00 | 82 | 1013.8 |
| 20260901113426 | 61 | 227 | 3.0 | 6.0 | 0.00 | 0.00 | 0.00 | 82 | 1013.8 |
| 20260901112926 | 61 | 268 | 4.0 | 9.0 | 0.00 | 0.00 | 0.00 | 82 | 1013.9 |
| 20260901112432 | 61 | 242 | 5.0 | 9.0 | 0.00 | 0.00 | 0.00 | 82 | 1014.0 |
| 20260901111935 | 61 | 247 | 4.0 | 11.0 | 0.00 | 0.00 | 0.00 | 82 | 1014.0 |
| 20260901111420 | 61 | 163 | 8.0 | 11.0 | 0.00 | 0.00 | 0.00 | 82 | 1014.0 |
| 20260901110945 | 61 | 222 | 3.0 | 9.0 | 0.00 | 0.00 | 0.00 | 82 | 1014.0 |
| 20260901110427 | 61 | 249 | 6.0 | 10.0 | 0.00 | 0.00 | 0.00 | 81 | 1014.0 |
| 20260901105955 | 61 | 222 | 6.0 | 10.0 | 0.00 | 0.00 | 0.00 | 81 | 1014.0 |
| 20260901105419 | 61 | 276 | 5.0 | 10.0 | 0.00 | 0.00 | 0.00 | 81 | 1014.0 |
| 20260901104923 | 61 | 301 | 3.0 | 10.0 | 0.00 | 0.00 | 0.00 | 81 | 1014.0 |
| 20260901104455 | 61 | 216 | 4.0 | 10.0 | 0.00 | 0.00 | 0.00 | 81 | 1014.0 |